Manchester, NH

9:51 AM EDT on May 28, 2017 (GMT -0400)
Manchester

Weather History for KMHT - April, 2014

Change the Weather History Date:

Sunday, April 13, 2014

  Actual Average Record
Temperature  
Mean Temperature 48 °F 46 °F  
Max Temperature 53 °F 57 °F 79 °F (1977)
Min Temperature 43 °F 36 °F 19 °F (1967)
Degree Days  
Heating Degree Days 17 19  
Month to date heating degree days 276  
Since 1 July heating degree days 5836  
Cooling Degree Days 0 0  
Month to date cooling degree days 0  
Year to date cooling degree days 0  
Moisture  
Dew Point 38 °F    
Average Humidity 72    
Maximum Humidity 90    
Minimum Humidity 48    
Precipitation  
Precipitation 0.09 in 0.13 in 1.55 in (2004)
Month to date precipitation 2.18  
Year to date precipitation 12.31  
Snow  
Snow 0.00 in - - ()
Month to date snowfall  
Since 1 July snowfall  
Snow Depth -    
Sea Level Pressure  
Sea Level Pressure 30.19 in    
Wind  
Wind Speed 4 mph (NE)    
Max Wind Speed 12 mph    
Max Gust Speed -    
Visibility 10 miles    
Events Rain    
T = Trace of Precipitation, MM = Missing Value Source: NWS Daily Summary

Daily Weather History Graph

Daily Weather History Graph

Search for Another Location

Airport or City:

Trip Planner

Search our weather history database for the weather conditions in past years. The results will help you decide how hot, cold, wet, or windy it might be!

Date:

Astronomy

Apr. 13, 2014 Rise Set
Actual Time 6:07 AM EDT 7:25 PM EDT
Civil Twilight 5:38 AM EDT 7:55 PM EDT
Nautical Twilight 5:02 AM EDT 8:30 PM EDT
Astronomical Twilight 4:25 AM EDT 9:08 PM EDT
Moon 5:58 PM EDT (4/13) 5:07 AM EDT (4/13)
Length of Visible Light 14h 17m
Length of Day
13h 18m
Waxing Gibbous, 97% of the Moon is Illuminated
Apr 13
Waxing Gibbous
Apr 15
Full
Apr 22
Last Quarter
Apr 29
New
May 6
First Quarter

Hourly Weather History & Observations

Time (EDT) Temp. Windchill Dew Point Humidity Pressure Visibility Wind Dir Wind Speed Gust Speed Precip Events Conditions
12:53 AM 48.0 °F - 34.0 °F 58% 30.24 in 10.0 mi Calm Calm - N/A   Clear
1:53 AM 46.9 °F - 34.0 °F 61% 30.26 in 10.0 mi Calm Calm - N/A   Clear
2:53 AM 46.0 °F 43.9 °F 34.0 °F 63% 30.26 in 10.0 mi North 4.6 mph - N/A   Partly Cloudy
3:53 AM 46.9 °F - 35.1 °F 63% 30.26 in 10.0 mi NNW 4.6 mph - N/A   Mostly Cloudy
4:53 AM 48.0 °F - 33.1 °F 56% 30.25 in 10.0 mi NNW 4.6 mph - N/A   Partly Cloudy
5:53 AM 50.0 °F - 30.9 °F 48% 30.25 in 10.0 mi Calm Calm - N/A   Mostly Cloudy
6:53 AM 50.0 °F - 32.0 °F 50% 30.24 in 10.0 mi Calm Calm - N/A   Mostly Cloudy
7:53 AM 50.0 °F - 33.1 °F 52% 30.27 in 10.0 mi NE 3.5 mph - N/A   Overcast
8:53 AM 50.0 °F - 36.0 °F 59% 30.32 in 10.0 mi NNW 6.9 mph - 0.00 in Rain Light Rain
9:53 AM 46.0 °F 41.0 °F 39.0 °F 76% 30.29 in 10.0 mi ENE 10.4 mph - 0.04 in Rain Light Rain
10:53 AM 44.1 °F 38.1 °F 39.9 °F 85% 30.28 in 8.0 mi ENE 11.5 mph - 0.05 in Rain Light Rain
11:53 AM 44.1 °F 40.8 °F 41.0 °F 89% 30.25 in 10.0 mi Variable 5.8 mph - 0.00 in   Overcast
12:35 PM 45.0 °F 42.6 °F 41.0 °F 86% 30.20 in 10.0 mi ENE 4.6 mph - N/A   Overcast
12:53 PM 45.0 °F 41.2 °F 42.1 °F 90% 30.25 in 10.0 mi Variable 6.9 mph - N/A   Overcast
1:39 PM 46.0 °F 43.1 °F 41.0 °F 83% 30.18 in 10.0 mi NE 5.8 mph - N/A   Overcast
1:45 PM 46.0 °F 42.5 °F 42.1 °F 86% 30.18 in 10.0 mi NE 6.9 mph - N/A   Overcast
1:53 PM 46.0 °F 41.4 °F 42.1 °F 86% 30.22 in 10.0 mi ENE 9.2 mph - N/A   Overcast
2:15 PM 46.9 °F - 41.0 °F 80% 30.17 in 10.0 mi Variable 5.8 mph - N/A   Overcast
2:53 PM 48.9 °F - 41.0 °F 74% 30.19 in 10.0 mi ENE 8.1 mph - N/A   Mostly Cloudy
2:58 PM 50.0 °F - 41.0 °F 71% 30.14 in 10.0 mi ENE 5.8 mph - N/A   Mostly Cloudy
3:53 PM 51.1 °F - 41.0 °F 68% 30.13 in 10.0 mi ENE 8.1 mph - N/A   Scattered Clouds
4:53 PM 53.1 °F - 39.9 °F 61% 30.12 in 10.0 mi NNE 11.5 mph - N/A   Scattered Clouds
5:53 PM 52.0 °F - 39.9 °F 63% 30.09 in 10.0 mi ENE 6.9 mph - N/A   Scattered Clouds
6:53 PM 50.0 °F - 39.9 °F 68% 30.08 in 10.0 mi NE 6.9 mph - N/A   Scattered Clouds
7:53 PM 48.2 °F - 39.2 °F 71% 30.04 in 10.0 mi NE 8.1 mph - N/A   Partly Cloudy
8:53 PM 46.0 °F 43.1 °F 39.0 °F 76% 30.09 in 10.0 mi North 5.8 mph - N/A   Partly Cloudy
9:53 PM 44.1 °F 41.5 °F 39.0 °F 82% 30.09 in 10.0 mi NE 4.6 mph - N/A   Mostly Cloudy
10:53 PM 43.0 °F 40.3 °F 39.0 °F 86% 30.08 in 10.0 mi NNE 4.6 mph - N/A   Mostly Cloudy
11:53 PM 43.0 °F 41.3 °F 39.0 °F 86% 30.07 in 10.0 mi ENE 3.5 mph - N/A   Mostly Cloudy